Content
SEND FEEDBACK

Daily
Averages
Monthly
Summary
France

AVIGNON, FRANCE


Home > Europe > France
Elevation: 187 feet     Latitude: 44 00N     Longitude: 004 45E

WEATHER
 
SELECT A DAY
Number of Records: 167,144;   Date Range: 5/17/04 - 7/23/14
 
SHARE

PRINT THIS DATA

[ ← Previous Day ]
WEATHER ALMANAC - NOVEMBER 22, 2013
[ Next Day → ]
[ °C ]   °F
Weather ElementAverageHighLow
Temperature39.9 °F46.4 °F (1:00 pm)32 °F (12:30 am)
Dewpoint32.3 °F35.6 °F (2:30 am)30.2 °F (5:30 am)
Humidity74.7 %100 % (12:30 am)61 % (12:30 pm)
Barometer29.55 in29.62 in (4:30 pm)29.47 in (3:30 am)
Wind Speed19.5 mph27.6 mph (12:30 pm)
Wind Gust42.6 mph (12:30 pm)
Weather ElementAverage
Visibility6.1 mi
Wind DirectionNNW (337.2 °)

Weather ElementTotal
Precipitation---
Heating Degree Days25.8 (Base 65)
Averaged from 47 records on November 22, 2013
WEATHER CONDITIONS BREAKOUT
WIND DIRECTION BREAKOUT
WEATHER BY HOUR - NOVEMBER 22, 2013
[ °C ]   °F
Local TimeTemperatureDewpointHumidityBarometerVisibilityWind DirectionWind SpeedGust SpeedPrecipitationEventsConditions
12:30 AM32.0 °F32.0 °F100 %29.53 in3.7 miCalm
1:00 AM33.8 °F32.0 °F93 %29.50 in6.2 miCalm
1:30 AM33.8 °F33.8 °F100 %29.50 in6.2 miNorth (360°)6.9 mph
2:00 AM35.6 °F33.8 °F93 %29.50 in6.2 miNorth (350°)5.8 mph
2:30 AM37.4 °F35.6 °F93 %29.50 in6.2 miNorth (350°)9.2 mphOvercast
3:00 AM37.4 °F33.8 °F87 %29.50 in6.2 miNorth (360°)12.7 mph
3:30 AM39.2 °F33.8 °F81 %29.47 in6.2 miNorth (360°)15.0 mph
4:00 AM39.2 °F32.0 °F75 %29.47 in6.2 miNorth (360°)16.1 mph
4:30 AM39.2 °F32.0 °F75 %29.47 in6.2 miNorth (360°)18.4 mph
5:00 AM39.2 °F32.0 °F75 %29.47 in6.2 miNorth (360°)19.6 mph
5:30 AM39.2 °F30.2 °F70 %29.47 in6.2 miNorth (360°)18.4 mph
6:00 AM37.4 °F32.0 °F81 %29.47 in6.2 miNorth (350°)20.7 mph33.4 mph
6:30 AM37.4 °F30.2 °F75 %29.50 in6.2 miNorth (350°)18.4 mph
7:00 AM37.4 °F30.2 °F75 %29.50 in6.2 miNorth (350°)19.6 mph
7:30 AM37.4 °F30.2 °F75 %29.50 in6.2 miNorth (350°)17.3 mph
8:00 AM37.4 °F30.2 °F75 %29.50 in6.2 miNorth (350°)18.4 mph
8:30 AM37.4 °F30.2 °F75 %29.53 in6.2 miNorth (350°)19.6 mph
9:00 AM39.2 °F32.0 °F75 %29.53 in6.2 miNorth (360°)18.4 mph33.4 mph
9:30 AM41.0 °F32.0 °F70 %29.53 in6.2 miNorth (350°)23.0 mph34.5 mph
10:00 AM41.0 °F32.0 °F70 %29.53 in6.2 miNorth (350°)25.3 mph38.0 mphPartly Cloudy
10:30 AM42.8 °F32.0 °F66 %29.53 in6.2 miNorth (350°)24.2 mph38.0 mph
11:00 AM42.8 °F32.0 °F66 %29.56 in6.2 miNorth (360°)21.9 mph
11:30 AM44.6 °F33.8 °F66 %29.56 in6.2 miNorth (350°)21.9 mph34.5 mph
12:00 PM44.6 °F33.8 °F66 %29.56 in6.2 miNorth (360°)23.0 mph36.8 mph
12:30 PM44.6 °F32.0 °F61 %29.56 in6.2 miNorth (360°)27.6 mph42.6 mph
1:00 PM46.4 °F33.8 °F62 %29.56 in6.2 miNorth (350°)21.9 mph38.0 mphPartly Cloudy
1:30 PM44.6 °F33.8 °F66 %29.56 in6.2 miNorth (350°)25.3 mph
2:00 PM44.6 °F33.8 °F66 %29.56 in6.2 miNNW (340°)23.0 mph
2:30 PM44.6 °F33.8 °F66 %29.56 in6.2 miNorth (350°)20.7 mphMostly Cloudy
3:00 PM44.6 °F32.0 °F61 %29.59 in6.2 miNorth (360°)19.6 mphScattered Clouds
3:30 PM42.8 °F32.0 °F66 %29.59 in6.2 miNorth (350°)23.0 mph36.8 mphPartly Cloudy
4:00 PM42.8 °F32.0 °F66 %29.59 in6.2 miNorth (350°)20.7 mph35.7 mph
4:30 PM41.0 °F32.0 °F70 %29.62 in6.2 miNorth (350°)20.7 mphPartly Cloudy
5:00 PM41.0 °F32.0 °F70 %29.62 in6.2 miNorth (350°)23.0 mph
5:30 PM39.2 °F32.0 °F75 %29.62 in6.2 miNorth (350°)19.6 mph
6:00 PM39.2 °F32.0 °F75 %29.62 in6.2 miNNW (340°)19.6 mph33.4 mph
6:30 PM39.2 °F32.0 °F75 %29.62 in6.2 miNNW (340°)21.9 mph34.5 mph
7:00 PM39.2 °F32.0 °F75 %29.62 in6.2 miNNW (340°)24.2 mph
7:30 PM39.2 °F32.0 °F75 %29.62 in6.2 miNorth (350°)26.5 mph39.1 mphPartly Cloudy
8:00 PM39.2 °F32.0 °F75 %29.62 in6.2 miNNW (340°)23.0 mph36.8 mphPartly Cloudy
8:30 PM39.2 °F32.0 °F75 %29.62 in6.2 miNorth (350°)25.3 mph
9:00 PM39.2 °F32.0 °F75 %29.62 in6.2 miNorth (350°)21.9 mph34.5 mph
9:30 PM39.2 °F32.0 °F75 %29.62 in6.2 miNorth (350°)23.0 mph
10:00 PM39.2 °F32.0 °F75 %29.62 in6.2 miNorth (350°)24.2 mph
10:30 PM39.2 °F32.0 °F75 %29.62 in6.2 miNorth (360°)23.0 mph
11:00 PM39.2 °F33.8 °F81 %29.62 in6.2 miNorth (360°)24.2 mph
11:30 PM39.2 °F32.0 °F75 %29.62 in6.2 miNorth (360°)23.0 mph
Hourly data recorded from LFMV, located miles away from Avignon, France







STORIES FROM OUR PARTNERS